OpenBCM V2.0.2 (Linux)

Packet Radio Mailbox

IZ3LSV

[San Dona' di P. JN]

 Login: GUEST





  
LU9DCE > KEPS     01.03.18 18:13l 261 Lines 12958 Bytes #999 (0) @ WW
BID : 33214_LU9DCE
Read: GUEST
Subj: SAT TLE OF 1
Path: IZ3LSV<IR2UBX<EA2RCF<LU9DCE
Sent: 180301/1601Z @:LU9DCE.TOR.BA.ARG.SOAM #:33214 [TORTUGUITAS] FBB7.07
From: LU9DCE@LU9DCE.TOR.BA.ARG.SOAM
To  : KEPS@WW


            __    _  _  ___  ____   ___  ____    ____  ____  ____
           (  )  / )( \/ _ \(    \ / __)(  __)  (  _ \(  _ \/ ___)
           / (_/\) \/ (\__  )) D (( (__  ) _)    ) _ ( ) _ (\___ \
           \____/\____/(___/(____/ \___)(____)  (____/(____/(____/
               ESTACION DE PACKET RADIO - BUENOS AIRES (GF05OM)
                   BOLETINES INFORMATIVOS PROGRAMADOS (BIP)
                    LU9DCE@GMX.COM - RF 147070 @ 1200 BAUD
                           telnet lu9dce.dynu.com
             BBS port 6300 / NODE port 3694 / DXCLUSTER port 9000

+------------------------------------------------------------------------------+
OSCAR 7
1 07530U 74089B   18060.20387014 -.00000052  00000-0 -46418-4 0  9999
2 07530 101.6731  29.2045 0012001 182.8162 248.8263 12.53631369981066
OSCAR 11 (UoSAT 2)
1 14781U 84021B   18059.84201482 +.00000066 +00000-0 +14327-4 0  9991
2 14781 097.6639 100.5955 0009986 080.8072 279.4271 14.82983400828385
OSCAR 19 (LUSAT)
1 20442U 90005G   18059.83823379 -.00000004 +00000-0 +14474-4 0  9991
2 20442 098.6012 359.0524 0012840 108.2333 252.0250 14.32887782468311
KITSAT B
1 22825U 93061C   18059.48987297 -.00000019 +00000-0 +10355-4 0  9994
2 22825 098.8501 033.7092 0007562 308.7258 051.3247 14.30022813273760
POSAT 1
1 22826U 93061D   18059.95155024 -.00000004  00000-0  16388-4 0  9998
2 22826  98.8443  34.2297 0007961 295.6959  64.3401 14.30353908274280
RADIO ROSTO
1 23439U 94085A   18059.77967139 -.00000056 +00000-0 -36772-3 0  9990
2 23439 064.8168 164.1607 0160925 201.4266 255.6164 11.27566562954340
JAS 2
1 24278U 96046B   18060.19684213 -.00000013  00000-0  21256-4 0  9992
2 24278  98.5277 273.7678 0350879  31.2439 330.9048 13.53082046 63634
TECHSAT 1B
1 25397U 98043D   18059.86738686 -.00000027 +00000-0 +72083-5 0  9990
2 25397 098.6398 002.1590 0001346 025.9750 334.1496 14.23640502020098
ISS (ZARYA)
1 25544U 98067A   18059.87764904 +.00001891 +00000-0 +35750-4 0  9991
2 25544 051.6406 198.6608 0003001 139.2650 358.3098 15.54165571101673
PCSAT
1 26931U 01043C   18059.70483610 -.00000044 +00000-0 +15084-4 0  9992
2 26931 067.0515 149.3277 0006095 282.5396 077.5023 14.30495270856968
SAUDISAT 1C
1 27607U 02058C   18060.17099521  .00000003  00000-0  21108-4 0  9995
2 27607  64.5551  60.1931 0052443 353.9931   6.0536 14.75423517817028
CUTE-1
1 27844U 03031E   18059.95888461 +.00000059 +00000-0 +46615-4 0  9994
2 27844 098.6892 070.2001 0009152 330.5265 029.5395 14.22096933760779
CUBESAT XI 4
1 27848U 03031J   18059.67703444 +.00000042 +00000-0 +39108-4 0  9995
2 27848 098.6981 070.2828 0009248 342.1073 017.9778 14.21703077760613
MOZHAYETS 4
1 27939U 03042A   18060.45490130  .00000067  00000-0  20536-4 0  9993
2 27939  97.9717 202.4843 0014115 127.2697 304.4450 14.66660790771023
CUBESAT XI 5
1 28895U 05043F   18059.91181551 +.00000129 +00000-0 +33619-4 0  9996
2 28895 097.8920 215.8524 0017858 054.8829 305.4044 14.63513411657806
CUTE-1.7+APD II
1 32785U 08021C   18059.78912024 +.00000212 +00000-0 +28597-4 0  9992
2 32785 097.5525 077.1155 0014098 043.1776 317.0544 14.88068323532980
DELFI C3
1 32789U 08021G   18059.93829542 +.00000760 +00000-0 +56612-4 0  9992
2 32789 097.5265 117.4327 0011061 311.8084 048.2198 15.05781414535397
SEEDS
1 32791U 08021J   18059.58380443 +.00000295 +00000-0 +35605-4 0  9990
2 32791 097.5442 082.0210 0014000 026.6194 333.5741 14.90476851533250
YUBELEINY
1 32953U 08025A   18060.43169980  .00000033  00000-0  16408-3 0  9990
2 32953  82.4990  79.6943 0020378  85.5924 274.7483 12.43082017443382
PRISM (HITOMI)
1 33493U 09002B   18060.09208565  .00000216  00000-0  24893-4 0  9992
2 33493  98.1415 317.9776 0014828 319.7171  40.2925 14.96092047494184
KKS-1 (KISEKI)
1 33499U 09002H   18060.20525308  .00000084  00000-0  20441-4 0  9996
2 33499  98.3501 238.4882 0007968 277.2537  82.7765 14.75298339489258
SWISSCUBE
1 35932U 09051B   18059.93605306 +.00000115 +00000-0 +36998-4 0  9998
2 35932 098.5276 208.5971 0007905 174.2478 185.8811 14.56125151447645
BEESAT
1 35933U 09051C   18059.90241046 +.00000094 +00000-0 +32087-4 0  9994
2 35933 098.5316 210.0400 0005816 184.7070 175.4073 14.56232939447704
ITUPSAT 1
1 35935U 09051E   18060.10238663  .00000073  00000-0  27784-4 0  9996
2 35935  98.5429 210.4988 0008211 182.0852 178.0312 14.55414069447606
XIWANG-1 (HOPE-1)
1 36122U 09072B   18059.93339097 -.00000014 +00000-0 +73290-4 0  9999
2 36122 100.0830 079.6024 0007531 007.9682 352.1550 13.16343527394309
TISAT 1
1 36799U 10035E   18059.91719213 +.00000512 +00000-0 +58226-4 0  9994
2 36799 098.0886 193.3840 0012082 198.1397 161.9391 14.90705970413824
JUGNU
1 37839U 11058B   18060.14320911  .00000331  00000-0  34677-4 0  9999
2 37839  19.9623 332.4077 0019046 135.8511  10.3700 14.12610695330071
SRMSAT
1 37841U 11058D   18060.14034550  .00000309  00000-0  24779-4 0  9990
2 37841  19.9736  19.3967 0011886  24.6429  78.2216 14.10599360329600
M-CUBED/EXP-1 PRIME
1 37855U 11061F   18059.92410210 +.00001642 +00000-0 +91722-4 0  9997
2 37855 101.7258 067.0495 0177667 042.6048 318.8789 15.04099883344904
HORYU 2
1 38340U 12025D   18059.64180780  .00000188  00000-0  35666-4 0  9992
2 38340  98.3737  77.5960 0011376 190.2920 169.8057 14.75504748311109
STRAND 1
1 39090U 13009E   18059.82623839 +.00000029 +00000-0 +25582-4 0  9995
2 39090 098.5319 267.5511 0008102 258.0320 101.9957 14.35012554262266
SOMP
1 39134U 13015E   18059.56983699 +.00001231 +00000-0 +68107-4 0  9991
2 39134 064.8627 118.1846 0022945 225.4619 134.4635 15.18845571268024
BEESAT 3
1 39135U 13015F   18060.40485743  .00000664  00000-0  43862-4 0  9994
2 39135  64.8689 127.4612 0028758 247.1741 112.6347 15.16423650268309
BEESAT 2
1 39136U 13015G   18059.67737938 +.00000970 +00000-0 +60169-4 0  9997
2 39136 064.8699 132.3000 0029474 247.3087 112.4922 15.15904115267752
CUBEBUG 1
1 39153U 13018D   18060.29739306  .00000177  00000-0  30237-4 0  9992
2 39153  97.9780 156.1945 0015702 297.7382  62.2237 14.80346176261626
ZACUBE
1 39417U 13066B   18059.66627951 +.00000215 +00000-0 +33448-4 0  9999
2 39417 097.5999 094.0317 0060017 149.4352 211.0381 14.80881564230736
TRITON 1
1 39427U 13066M   18059.96577492 +.00000123 +00000-0 +27978-4 0  9996
2 39427 097.6384 063.0884 0112805 245.8207 113.1174 14.67616033228511
GOMX 1
1 39430U 13066Q   18060.01784498  .00000199  00000-0  45462-4 0  9995
2 39430  97.6872  44.7510 0150608 312.4355  46.4188 14.59030997227373
HUMSAT D
1 39433U 13066T   18060.11795860  .00000521  00000-0  56643-4 0  9996
2 39433  97.6185 120.2054 0032490  83.1881 277.3033 14.91759953232310
50 SAT
1 39436U 13066W   18059.87949524 +.00089485 +00000-0 +10462-2 0  9991
2 39436 097.7118 187.4130 0006169 237.8730 122.1928 15.61269710235188
CUBEBUG 2
1 39440U 13066AA  18059.64738714  .00000174  00000-0  31313-4 0  9996
2 39440  97.6086  81.2952 0080469 186.9792 173.0305 14.75617655229913
FUNCUBE 1
1 39444U 13066AE  18060.05641571  .00000246  00000-0  36714-4 0  9991
2 39444  97.6010  95.7891 0059298 144.0393 216.4834 14.81647637229643
UWE-3
1 39446U 13066AG  18059.85606017 +.00000182 +00000-0 +30987-4 0  9990
2 39446 097.6029 087.4888 0070690 167.8791 192.4142 14.78150795229110
SPROUT
1 39770U 14029E   18060.37401282  .00000636  00000-0  77725-4 0  9991
2 39770  97.8724 162.3687 0008853 193.5543 166.5441 14.86686060204347
UNISAT 6
1 40012U 14033C   18059.92468429 +.00000159 +00000-0 +31375-4 0  9993
2 40012 097.8247 300.1068 0058230 186.6730 173.3710 14.73769276198757
DUCHIFAT 1
1 40021U 14033M   18059.82325334  .00000327  00000-0  39628-4 0  9995
2 40021  97.9177 338.3480 0013042 169.3659 190.7837 14.90209032200813
QB50P1
1 40025U 14033R   18059.86456852  .00000238  00000-0  31568-4 0  9999
2 40025  97.9085 335.4724 0012483 175.0011 185.1332 14.88643893200674
CHUBUSAT 1
1 40300U 14070C   18060.29514582  .00000651  00000-0  32007-4 0  9998
2 40300  97.3722 140.2661 0018746 283.0970 148.9469 15.21403303183874
NUDT-PHONESAT
1 40900U 15049B   18059.95850137 +.00001970 +00000-0 +92173-4 0  9996
2 40900 097.4432 069.4851 0014961 052.8458 307.4142 15.20837367135462
ZDPS 2A
1 40901U 15049C   18060.36182892  .00000729  00000-0  40355-4 0  9996
2 40901  97.4600  68.4025 0015199  56.6113 303.6572 15.16877545135312
ZDPS 2B
1 40902U 15049D   18060.38715276  .00000714  00000-0  39803-4 0  9997
2 40902  97.4490  66.6303 0015202  53.9401 306.3237 15.16683288135300
XW-2A
1 40903U 15049E   18060.33439555  .00001606  00000-0  42183-4 0  9992
2 40903  97.3974  94.0676 0015917  62.9409 297.3460 15.40051845137209
KAITUO 1A
1 40904U 15049F   18060.35419781  .00000622  00000-0  36837-4 0  9990
2 40904  97.4587  65.9638 0016337  54.4902  57.4095 15.14898234135172
OBJECT G
1 40905U 15049G   18060.41399382  .00000355  00000-0  23182-4 0  9994
2 40905  97.4576  64.2788 0017083  47.9163 312.3519 15.13869345135112
XW-2C
1 40906U 15049H   18060.20533063  .00000627  00000-0  37001-4 0  9995
2 40906  97.4597  65.6902 0016346  48.5946 311.6688 15.15033647135148
XW-2D
1 40907U 15049J   18060.43230359  .00000583  00000-0  34520-4 0  9997
2 40907  97.4569  65.6239 0015646  46.1603 314.0920 15.15173101135187
LILACSAT 2
1 40908U 15049K   18059.91445011 +.00000336 +00000-0 +22378-4 0  9996
2 40908 097.4678 064.6112 0017290 047.9758 312.2942 15.13417370134994
XW-2F
1 40910U 15049M   18060.39702283  .00000922  00000-0  50928-4 0  9993
2 40910  97.4577  66.7104 0016311  42.6911 317.5586 15.16288151135129
XW-2B
1 40911U 15049N   18060.44596902  .00000590  00000-0  34924-4 0  9998
2 40911  97.4607  66.1329 0015554  46.6404 313.6121 15.15121505135081
